30P/Reinmuth 1 (2024)

Japanese version
Home page
Updated on April 13, 2024

---------------------------------------------------------------------

* Profile

* Pictures

* Orbital Elements

Epoch 2023 Sept. 13.0 TT = JDT 2460200.5
T 2024 Aug. 17.10172 TT                                 Rudenko
q   1.8120906            (2000.0)            P               Q
n   0.13639210     Peri.    9.43772     -0.59708768     -0.79246811
a   3.7377470      Node   117.32649     +0.72654556     -0.59999431
e   0.5151918      Incl.    8.05073     +0.34002624     -0.10954962
P   7.23
>From 878 observations 2011 Apr. 12-2023 Dec. 12, mean residual 0".8.

* Finding Charts

* Magnitudes Graph

        m1 = 10.0 + 5 log d + 13.0 log r

---------------------------------------------------------------------

The orbital elements are published on M.P.E.C. 2023-X256.
The charts are made with StellaNavigator Ver.10 (AstroArts).
The magnitudes graphs are made with Comet for Windows.

---------------------------------------------------------------------

Copyright(C) Seiichi Yoshida (comet@aerith.net). All rights reserved.